Wind_Speed
28 29 29 29 30 30 30 30 30 30 31 31 31 31 32 33 33 33 33 34 34 35 36 37 38 39 39 41 42 43 43 44 45 47 48 48 48 47 47 47 47 46 46 46
29 30 30 30 30 30 30 31 30 30 30 30 30 30 30 32 32 32 33 34 34 35 36 36 38 38 40 41 42 43 43 44 45 46 48 49 49 49 48 47 47 47 47 48
30 30 30 30 30 30 30 31 30 30 30 30 31 30 29 31 31 32 32 33 33 34 35 35 37 38 39 40 41 42 43 45 45 46 48 49 49 49 49 48 48 49 49 49
29 28 29 29 30 30 30 30 31 30 30 31 31 32 30 29 31 31 31 32 31 32 34 35 36 37 38 39 40 41 43 44 45 46 47 47 48 49 49 49 49 50 50 50
29 29 29 29 29 30 31 31 31 31 31 32 31 32 30 29 29 30 30 31 32 32 33 34 35 36 37 38 39 40 42 43 44 45 47 47 48 50 49 50 51 51 51 50
29 30 29 29 29 30 31 31 32 32 32 33 31 31 31 30 29 29 30 31 32 33 33 34 35 36 37 38 39 40 42 42 43 44 46 47 48 50 50 50 51 51 52 51
30 30 30 29 29 30 30 31 31 32 32 32 32 31 31 31 30 30 31 32 32 33 34 34 34 36 37 38 39 40 41 42 43 44 46 46 47 48 49 50 51 52 52 52
31 30 30 30 30 30 30 30 31 33 33 33 33 32 32 31 32 31 31 32 33 33 33 34 34 35 36 37 38 39 40 41 42 44 45 46 47 48 50 51 52 53 53 53
30 30 30 30 30 30 30 30 31 32 34 34 34 33 33 32 33 33 32 32 33 33 33 34 34 35 35 36 38 39 41 42 42 44 45 47 48 49 49 50 51 51 52 53
30 30 30 30 30 30 30 31 31 32 33 35 35 34 33 33 33 33 33 33 34 34 35 35 35 35 35 36 38 39 41 42 43 45 46 46 47 48 48 49 51 53 52 53
31 31 31 31 31 30 30 31 31 32 33 35 36 35 35 34 34 34 34 34 35 35 35 35 37 37 38 38 39 39 40 41 43 45 46 47 47 47 47 48 49 51 52 52
32 32 32 32 32 32 32 32 32 32 33 34 35 35 34 35 35 35 35 35 35 35 36 36 37 37 38 38 39 40 41 42 42 44 45 46 46 46 47 47 49 50 51 52
33 33 33 33 34 34 33 33 32 33 34 34 34 34 34 34 35 35 35 35 36 35 36 36 37 38 38 39 40 40 41 42 43 44 45 45 45 47 48 48 48 49 50 52
34 34 34 34 35 35 34 34 34 34 34 34 34 34 33 34 34 34 35 35 36 36 36 36 37 38 38 39 40 40 41 42 42 43 43 44 46 47 49 50 50 49 49 51
34 34 34 34 35 35 34 34 34 34 34 35 34 34 33 34 34 34 35 35 36 36 36 37 37 38 39 39 40 41 42 42 42 42 42 43 45 46 47 48 48 49 49 50
35 35 35 34 34 35 34 33 34 35 35 35 35 35 35 36 36 36 36 36 36 36 37 37 38 39 39 40 40 40 41 42 42 41 41 42 43 44 45 46 47 48 49 50
35 36 36 36 35 35 35 33 33 34 34 35 35 35 36 36 36 36 36 37 37 38 38 37 38 39 39 40 41 41 42 42 42 41 41 41 42 43 44 46 47 48 48 49
35 35 35 36 35 36 35 34 34 34 33 34 34 35 36 36 36 37 37 38 38 38 38 38 39 39 39 40 40 41 42 42 41 41 41 41 42 42 43 45 46 47 48 48
33 34 34 35 35 36 35 34 34 34 33 33 34 35 35 36 36 37 37 38 38 39 39 39 39 39 39 39 40 40 41 41 41 42 43 43 43 42 43 43 44 44 46 47
33 33 33 34 35 36 35 35 35 35 36 34 35 35 36 36 36 37 37 38 38 39 40 40 39 39 39 39 39 39 39 39 40 41 42 43 43 43 43 43 43 45 45 46
33 33 34 34 35 35 34 34 35 35 36 36 36 35 36 36 37 37 37 37 38 38 39 39 39 39 39 39 38 37 37 37 38 39 41 41 42 42 42 42 43 44 45 47
32 33 33 33 33 33 33 33 34 35 35 35 36 36 36 36 37 37 38 38 38 38 38 38 38 38 38 38 37 37 37 37 37 38 39 40 41 42 43 43 42 42 43 45
31 32 33 33 32 32 32 33 34 34 34 35 35 35 35 36 36 36 36 36 36 36 37 37 37 37 37 37 37 36 36 36 36 37 38 39 41 41 42 42 42 43 43 43
32 33 33 33 32 32 33 34 34 34 34 34 35 35 36 36 36 35 35 35 35 35 35 35 35 36 35 35 35 36 36 36 36 37 37 38 39 40 41 42 42 43 42 42
32 32 32 32 31 31 32 33 33 33 33 34 34 34 34 34 33 34 34 34 33 33 33 33 34 34 34 34 34 34 35 35 35 36 36 37 38 39 40 40 41 41 41 41
30 30 31 31 30 31 31 32 32 32 33 33 33 33 32 32 32 32 32 32 32 32 32 33 33 33 33 32 32 33 33 34 34 35 35 36 36 36 37 38 38 39 38 38
Wind_Direction
286 287 288 289 290 290 290 289 288 286 283 281 279 277 276 275 273 270 268 267 266 265 264 261 260 258 257 256 256 256 257 257 254 253 252 252 253 253 255 255 255 255 256 256
287 287 289 289 289 290 289 289 289 287 284 282 281 279 278 277 276 273 271 269 268 267 265 262 261 259 258 258 257 257 257 258 256 254 253 253 253 253 254 256 255 255 256 256
287 288 288 287 288 289 290 290 290 289 286 284 282 279 278 278 277 274 273 272 270 268 267 264 264 262 261 261 260 258 258 258 256 255 255 254 253 253 254 255 255 255 255 255
287 288 288 288 289 289 290 291 290 289 288 287 285 283 281 280 277 276 275 274 272 270 269 267 265 263 262 261 261 259 259 259 258 257 255 255 255 254 254 255 255 255 255 255
287 287 288 289 290 290 290 291 290 289 289 289 288 284 283 281 278 277 276 275 274 273 272 269 266 265 264 263 262 261 260 261 260 258 256 257 257 255 255 254 253 254 255 255
286 287 288 289 290 290 290 291 290 289 288 288 290 288 284 283 281 280 278 278 276 275 274 273 270 268 267 265 264 263 261 263 262 259 257 258 258 257 257 255 254 255 255 256
286 287 288 289 289 289 290 292 293 291 289 290 290 289 287 285 284 282 280 279 279 278 275 273 272 270 268 267 266 265 263 263 262 262 261 260 259 260 258 257 255 255 255 255
286 287 288 290 291 291 291 292 293 293 292 292 292 291 291 288 285 284 281 280 280 279 276 273 272 273 270 268 267 265 265 264 263 263 263 261 260 260 259 258 256 255 255 255
288 287 288 290 292 292 293 292 293 293 292 292 292 292 291 289 287 283 282 281 280 280 278 275 273 273 272 270 268 267 266 266 264 263 263 262 261 260 260 259 257 255 255 255
287 287 288 289 290 291 292 294 294 294 294 294 293 292 291 290 288 286 283 283 283 281 280 277 276 274 273 271 270 269 267 266 264 264 264 263 262 262 261 260 258 256 256 256
287 287 288 289 290 292 292 293 293 292 292 293 294 293 292 291 289 287 286 286 285 283 281 279 278 276 274 272 271 271 270 268 265 265 266 265 264 263 263 262 261 259 257 256
287 287 288 289 290 291 293 294 294 293 293 292 293 293 292 290 289 288 289 288 286 284 282 281 279 277 275 274 274 274 272 270 268 267 267 266 264 264 264 264 263 262 259 257
288 288 289 289 290 291 293 294 294 293 292 292 293 293 292 290 289 289 289 288 287 285 283 282 280 278 277 276 276 276 274 273 271 269 267 265 264 265 264 264 265 264 262 259
289 289 289 290 292 292 293 293 293 293 293 292 293 293 291 290 289 289 288 288 287 286 285 282 281 279 278 277 276 276 275 274 273 271 269 266 266 266 265 265 265 264 263 261
287 288 289 290 290 290 291 291 292 292 293 293 294 293 293 290 289 288 288 288 287 286 284 283 281 280 280 279 278 277 276 274 273 272 269 267 267 267 267 266 266 265 264 262
286 287 288 289 289 288 289 291 292 292 293 292 292 292 291 291 290 288 288 288 288 287 286 284 282 281 281 280 280 278 276 274 273 272 269 268 269 268 268 268 267 267 265 263
286 287 288 288 288 288 289 291 291 291 292 292 292 291 291 291 291 290 289 289 289 289 288 286 285 284 283 281 280 277 275 274 272 271 270 270 271 271 270 268 268 268 266 265
287 288 288 288 288 289 291 291 290 291 292 293 292 291 290 290 290 289 289 289 290 290 289 287 287 287 286 284 281 279 277 275 273 272 271 271 271 271 270 269 268 268 267 266
287 288 289 289 289 290 291 291 290 291 291 292 292 292 291 291 290 290 290 290 290 290 290 289 289 288 287 286 283 281 279 275 273 272 271 272 272 272 271 270 269 268 267 267
287 288 289 290 290 292 293 291 290 290 290 291 293 293 293 292 292 292 292 291 291 291 291 290 289 289 289 288 286 283 280 276 274 273 273 272 273 272 272 271 271 270 269 269
287 288 289 290 291 292 293 292 291 290 292 293 294 294 294 293 294 294 294 293 293 293 292 291 290 290 290 289 287 284 281 279 276 274 274 274 274 273 273 272 272 271 270 269
289 289 289 290 291 293 293 291 290 290 291 293 294 295 295 295 295 295 296 296 296 295 294 293 292 291 290 289 287 285 282 280 278 276 275 275 275 275 274 274 273 273 271 270
288 288 289 290 291 291 291 290 290 291 291 293 294 295 296 296 297 298 298 298 298 297 296 295 294 292 291 290 287 285 283 281 278 277 276 276 276 276 275 275 274 274 274 272
287 287 288 290 292 291 290 290 291 293 293 294 295 296 297 298 299 300 299 299 299 299 298 297 296 295 292 290 287 285 284 282 279 277 277 276 276 276 276 275 276 276 275 273
287 288 289 289 290 289 289 290 292 294 295 295 296 297 298 298 299 300 300 300 300 300 299 299 299 298 296 292 289 287 285 283 280 279 278 278 278 277 276 276 276 276 275 273
288 288 288 289 290 290 291 291 292 295 295 295 296 297 298 299 301 301 301 301 301 301 301 300 300 300 299 296 292 289 286 284 282 281 280 280 279 278 278 277 277 276 274 272
Height
5740 5738 5735 5732 5730 5727 5723 5720 5717 5714 5711 5709 5706 5704 5702 5699 5698 5697 5697 5697 5696 5696 5695 5695 5696 5697 5698 5700 5701 5703 5704 5706 5708 5710 5712 5714 5717 5719 5721 5722 5724 5725 5726 5728
5732 5729 5727 5723 5720 5718 5715 5712 5709 5706 5702 5700 5698 5696 5693 5691 5690 5689 5688 5687 5687 5685 5685 5685 5685 5686 5687 5688 5689 5691 5692 5694 5696 5697 5699 5702 5704 5706 5708 5710 5711 5713 5714 5715
5723 5721 5718 5715 5712 5710 5707 5704 5701 5698 5695 5692 5690 5688 5686 5684 5682 5680 5679 5678 5677 5676 5675 5675 5675 5676 5676 5677 5678 5679 5680 5682 5683 5684 5686 5688 5690 5692 5694 5696 5698 5700 5701 5702
5714 5712 5709 5707 5704 5702 5699 5696 5693 5690 5687 5684 5682 5679 5679 5676 5674 5672 5671 5669 5668 5667 5666 5665 5665 5665 5666 5666 5666 5667 5668 5669 5670 5671 5673 5675 5677 5679 5681 5683 5685 5686 5688 5689
5706 5704 5701 5699 5697 5694 5691 5688 5685 5682 5679 5676 5674 5671 5671 5668 5666 5664 5662 5661 5659 5658 5657 5656 5655 5656 5656 5656 5656 5656 5657 5657 5658 5659 5660 5661 5663 5665 5667 5668 5670 5672 5674 5675
5698 5696 5693 5691 5689 5686 5683 5680 5677 5674 5671 5668 5666 5663 5661 5660 5659 5656 5654 5652 5650 5649 5647 5646 5645 5645 5645 5645 5645 5645 5645 5645 5645 5646 5647 5648 5650 5651 5653 5655 5656 5658 5660 5661
5690 5688 5685 5683 5681 5678 5675 5673 5669 5665 5662 5660 5658 5654 5654 5651 5650 5648 5646 5643 5641 5640 5638 5636 5635 5634 5634 5634 5634 5634 5634 5634 5634 5634 5634 5635 5636 5637 5639 5641 5642 5643 5645 5647
5681 5679 5677 5675 5673 5670 5667 5665 5662 5658 5654 5652 5650 5647 5646 5643 5641 5638 5636 5634 5632 5631 5628 5626 5625 5624 5623 5623 5623 5623 5623 5623 5622 5622 5622 5622 5622 5624 5625 5626 5627 5629 5630 5632
5672 5671 5669 5666 5664 5662 5658 5656 5653 5650 5646 5643 5641 5639 5637 5634 5631 5629 5627 5625 5623 5621 5619 5617 5616 5614 5613 5613 5612 5612 5612 5611 5610 5610 5610 5609 5609 5610 5611 5612 5612 5614 5615 5617
5664 5662 5660 5658 5656 5653 5651 5647 5645 5641 5637 5634 5632 5630 5629 5625 5622 5620 5618 5616 5614 5612 5610 5608 5606 5605 5604 5602 5601 5601 5600 5599 5598 5598 5597 5597 5596 5596 5597 5598 5598 5599 5600 5602
5655 5654 5652 5649 5647 5645 5643 5640 5636 5632 5629 5626 5622 5624 5619 5616 5613 5610 5608 5606 5604 5602 5600 5598 5596 5594 5593 5592 5591 5589 5588 5587 5586 5586 5585 5584 5584 5584 5584 5584 5584 5585 5586 5587
5647 5645 5643 5641 5638 5636 5633 5630 5628 5625 5621 5617 5614 5616 5610 5607 5603 5600 5598 5596 5593 5591 5590 5588 5586 5584 5582 5581 5580 5578 5577 5576 5574 5573 5573 5572 5571 5571 5571 5571 5571 5571 5572 5573
5637 5635 5633 5632 5631 5628 5624 5622 5619 5616 5612 5609 5606 5607 5601 5597 5594 5591 5589 5586 5583 5581 5580 5577 5575 5573 5571 5570 5568 5567 5565 5564 5562 5561 5560 5559 5559 5558 5558 5558 5557 5557 5557 5558
5628 5626 5625 5623 5620 5617 5615 5613 5610 5606 5603 5600 5598 5596 5593 5588 5585 5582 5579 5576 5574 5571 5569 5566 5564 5562 5560 5558 5556 5555 5553 5552 5550 5548 5547 5547 5546 5545 5545 5544 5543 5543 5543 5544
5619 5617 5615 5613 5611 5608 5605 5603 5600 5597 5594 5591 5589 5586 5583 5579 5575 5572 5569 5566 5564 5561 5558 5556 5553 5551 5549 5547 5545 5543 5541 5539 5538 5536 5535 5535 5534 5533 5532 5531 5530 5530 5530 5530
5609 5607 5606 5604 5601 5598 5596 5594 5591 5587 5584 5581 5578 5577 5574 5569 5566 5562 5559 5556 5553 5551 5548 5545 5542 5540 5537 5535 5533 5531 5529 5527 5526 5524 5523 5523 5522 5521 5519 5518 5517 5517 5516 5516
5599 5597 5595 5593 5591 5587 5586 5585 5581 5578 5575 5572 5569 5567 5563 5559 5556 5552 5549 5546 5543 5540 5537 5534 5531 5528 5526 5523 5521 5519 5517 5515 5514 5512 5511 5511 5509 5508 5507 5505 5504 5504 5503 5503
5590 5587 5584 5582 5580 5577 5579 5575 5571 5568 5566 5562 5559 5556 5553 5549 5546 5542 5538 5535 5532 5529 5526 5523 5520 5517 5515 5512 5509 5507 5505 5503 5501 5500 5499 5499 5497 5496 5494 5493 5491 5491 5490 5490
5580 5577 5574 5571 5568 5566 5567 5565 5561 5557 5556 5553 5549 5546 5542 5539 5536 5533 5528 5525 5522 5518 5515 5512 5509 5506 5503 5500 5497 5495 5493 5491 5489 5488 5487 5486 5485 5483 5482 5480 5479 5478 5477 5477
5570 5567 5565 5561 5558 5556 5558 5554 5550 5547 5545 5543 5539 5535 5532 5528 5525 5523 5518 5514 5511 5508 5504 5501 5498 5495 5492 5489 5485 5483 5481 5479 5477 5476 5474 5473 5472 5471 5469 5468 5467 5465 5464 5463
5560 5557 5555 5552 5548 5547 5547 5543 5540 5539 5536 5532 5528 5525 5521 5518 5514 5511 5507 5504 5500 5497 5493 5490 5486 5484 5481 5477 5474 5471 5469 5467 5465 5464 5462 5461 5459 5458 5457 5455 5454 5452 5451 5450
5550 5547 5545 5542 5539 5540 5537 5533 5531 5528 5525 5522 5518 5515 5512 5508 5504 5500 5497 5493 5490 5486 5483 5479 5476 5473 5469 5466 5463 5460 5458 5456 5454 5452 5451 5449 5447 5446 5444 5442 5441 5439 5437 5436
5541 5539 5535 5534 5534 5530 5526 5524 5521 5518 5515 5512 5509 5506 5502 5499 5495 5491 5487 5483 5480 5476 5472 5469 5465 5462 5458 5455 5451 5449 5447 5444 5442 5440 5439 5437 5435 5433 5431 5429 5427 5426 5424 5422
5531 5528 5526 5524 5523 5520 5517 5514 5511 5509 5506 5503 5500 5496 5493 5489 5485 5482 5478 5474 5470 5466 5462 5459 5455 5451 5448 5444 5440 5438 5435 5432 5430 5429 5427 5424 5422 5420 5418 5416 5414 5412 5410 5409
5522 5519 5516 5515 5514 5511 5508 5505 5502 5499 5496 5493 5490 5487 5483 5480 5476 5472 5469 5465 5461 5457 5453 5449 5445 5441 5437 5433 5430 5427 5424 5421 5419 5417 5415 5413 5410 5408 5406 5403 5401 5399 5397 5395
5513 5511 5508 5507 5505 5502 5499 5496 5493 5490 5487 5484 5481 5478 5474 5471 5467 5463 5460 5456 5452 5448 5444 5440 5436 5432 5428 5423 5420 5416 5413 5410 5408 5406 5404 5401 5399 5397 5394 5391 5389 5386 5385 5384